Location: Gro�bocka
(50.8204°N, 11.9702°E)
Time: 22:51:24
(UTC+00:00)

X-37B - Pass Details

Date: 01 July 2021
Orbit: 383 x 392 km, 45.0° (Epoch: 01 July)

Event Time Altitude Azimuth Distance (km) Brightness Sun altitude
Rises 20:46:01 0° 264° (W) 2,259 4.9 -9.1°
Reaches altitude 10° 20:48:27 10° 246° (WSW) 1,403 3.5 -9.3°
Maximum altitude 20:50:47 19° 198° (SSW) 983 2.3 -9.5°
Enters shadow 20:52:20 14° 162° (SSE) 1,185 2.4 -9.6°
